[Iaude] MPEC N87: 2024 NR1 [a=2.28,e=0.54,i=8.8,H=25.6]
    mpec at cfa.harvard.edu 
    mpec at cfa.harvard.edu
       
    Mon Jul  8 00:08:31 EDT 2024
    
    
  
M.P.E.C. 2024-N87                                  Issued 2024 July 8, 04:06 UT
     The Minor Planet Electronic Circulars contain information on unusual
         minor planets, routine data on comets and natural satellites,
         and occasional editorial announcements.  They are published
    on behalf of Division F of the International Astronomical Union by the
          Minor Planet Center, Smithsonian Astrophysical Observatory,
                          Cambridge, MA 02138, U.S.A.
			  
             Prepared using the Tamkin Foundation Computer Network
                              MPC at CFA.HARVARD.EDU
            URL https://www.minorplanetcenter.net/    ISSN 1523-6714
                                    2024 NR1                                    
Observations:
     K24N01R* C2024 07 06.36157616 15 13.306-15 40 32.58         20.37wXEN087F51
     K24N01R  C2024 07 06.37383916 15 25.509-15 37 59.68         20.90wXEN087F51
     K24N01R  C2024 07 06.38611316 15 37.762-15 35 26.65         20.40wXEN087F51
     K24N01R  C2024 07 06.39836616 15 50.038-15 32 52.90         20.22wXEN087F51
     K24N01R KB2024 07 06.84141 16 23 53.25 -14 00 26.1          19.7 VZEN087M45
     K24N01R KB2024 07 06.84597 16 23 58.00 -13 59 26.4          20.1 VZEN087M45
     K24N01R $C2024 07 06.89518616 24 56.389-13 48 11.15         19.9 GVEN087J04
     K24N01R $C2024 07 06.89833116 24 59.543-13 47 31.20               VEN087J04
     K24N01R KB2024 07 06.90197 16 24 57.90 -13 47 19.8                ZEN087106
     K24N01R KB2024 07 06.90583 16 25 01.84 -13 46 30.1                ZEN087106
     K24N01R KB2024 07 06.90954 16 25 05.75 -13 45 40.9                ZEN087106
     K24N01R KB2024 07 06.91319 16 25 09.55 -13 44 52.6                ZEN087106
     K24N01R KB2024 07 06.98266816 26 24.08 -13 29 41.3          19.8 GXEN087958
     K24N01R KB2024 07 06.99093216 26 32.77 -13 27 52.1          19.7 GXEN087958
     K24N01R KB2024 07 06.99586216 26 37.99 -13 26 47.9          20.0 GXEN087I93
     K24N01R KB2024 07 06.99920216 26 41.48 -13 26 01.9                XEN087958
     K24N01R KB2024 07 07.00085916 26 43.25 -13 25 41.2          20.4 GXEN087I93
     K24N01R KB2024 07 07.00530616 26 47.92 -13 24 42.9          20.3 GXEN087I93
     K24N01R |C2024 07 07.08008016 28 17.110-13 04 47.80         20.3 GVEN087807
     K24N01R |C2024 07 07.08281016 28 19.930-13 04 11.90         20.0 GVEN087807
     K24N01R |C2024 07 07.08549016 28 22.730-13 03 37.00         19.9 GVEN087807
     K24N01R KC2024 07 07.14189516 29 24.32 -12 54 39.0          20.4 GVEN087H21
     K24N01R KC2024 07 07.14575316 29 28.34 -12 53 47.7          20.6 GVEN087H21
     K24N01R KC2024 07 07.14768316 29 30.36 -12 53 22.2          20.6 GVEN087H21
     K24N01R KC2024 07 07.14929016 29 32.03 -12 53 00.9          20.5 GVEN087H21
     K24N01R KC2024 07 08.14460416 48 12.65 -09 04 25.3          20.6 GVEN087H21
     K24N01R KC2024 07 08.14744816 48 15.73 -09 03 44.7          20.7 GVEN087H21
     K24N01R KC2024 07 08.15029116 48 18.79 -09 03 04.3          20.5 GVEN087H21
     K24N01R KC2024 07 08.15313316 48 21.82 -09 02 24.4          20.9 GVEN087H21
Observer details:
106 Crni Vrh.  Observer H. Mikuz.  0.60-m f/3.3 reflector + CMO.
807 Cerro Tololo Observatory, La Serena.  Observers T. Linder, R. Holmes.
    0.61-m f/6.8 Ritchey-Chretien + CCD.
958 Observatoire de Dax.  Observer P. Dupouy.  0.50-m f/4.5 Reflector + CMO.
F51 Pan-STARRS 1, Haleakala.  Observers J. Herman, T. Lowe, P. Minguez, A.
    Schultz, I. Smith.  Measurers K. Chambers, T. de Boer, J. Fairlamb, H.
    Gao, M. Huber, C.-C. Lin, E. Magnier, Y. Ramanjooloo, R. Wainscoat, R.
    Weryk.  1.8-m Ritchey-Chretien + CCD.
H21 Astronomical Research Observatory, Westfield.  Observer R. Holmes.
    Measurers T. Linder, R. Holmes, L. Horn.  0.76-m f/3.0 astrograph + CCD,
    0.81-m f/4.0 astrograph + CCD.
I93 St Pardon de Conques.  Observer F. Losse.  0.40-m f/3.7 reflector + CMO.
J04 ESA Optical Ground Station, Tenerife.  Observers D. Abreu, M. Micheli, F.
    Ocana, L. Conversi.  Measurers F. Ocana, M. Micheli, R. Kresken.
    1.0-m f/4.4 reflector + CCD.
M45 Starhopper Observatory, Sfantu Gheorghe.  Observer F. Ursache.  0.41-m
    f/7.5 reflector + CMO.
Orbital elements:
2024 NR1                                                 Earth MOID = 0.0365 AU
Epoch 2024 Mar. 31.0 TT = JDT 2460400.5                 MPC                     
M 331.42070              (2000.0)            P               Q                  
n   0.28685646     Peri.    4.17438     +0.26480346     +0.95258497             
a   2.2769821      Node   281.23071     -0.88909552     +0.18101153             
e   0.5377427      Incl.    8.78898     -0.37334739     +0.24457452             
P   3.44           H   25.60          G   0.15           U   7                  
Residuals in seconds of arc
240706 F51  0.2-  0.5-    240706 106  0.1-  0.2+    240707 807  0.7+  0.5-
240706 F51  0.2-  0.1-    240706 106  0.1-  0.8+    240707 H21  0.4-  0.2+
240706 F51  0.0   0.2-    240706 958  1.2-  0.8-    240707 H21  0.4-  0.3+
240706 F51  0.3+  0.3+    240706 958  0.8-  0.6-    240707 H21  0.3-  0.1+
240706 M45  0.2+  0.3-    240706 I93  0.3+  0.2-    240707 H21  0.3-  0.1+
240706 M45  0.6+  0.3+    240706 958  0.4-  0.2+    240708 H21  0.0   0.1+
240706 J04  0.8+  0.2+    240707 I93  0.4+  0.4+    240708 H21  0.3+  0.2+
240706 J04  0.2-  0.5-    240707 I93  0.1+  0.2-    240708 H21  0.2+  0.1+
240706 106  0.2+  0.2+    240707 807  0.1+  0.2+    240708 H21  0.3-  0.5-
240706 106  0.8-  0.5-    240707 807  0.2+  0.0
Ephemeris:
2024 NR1                 a,e,i = 2.28, 0.54, 9                   q = 1.0526
Date    TT    R. A. (2000) Decl.     Delta      r    Elong.  Phase     V
2024 06 08    13 02 11.1 -41 10 28   0.1587  1.1167   126.5    47.0    23.6
...
2024 06 23    13 46 47.7 -36 49 09   0.09272 1.0699   123.2    52.7    22.5
...
2024 07 01    14 54 54.0 -28 59 13   0.06136 1.0567   129.4    48.0    21.5
...
2024 07 07    16 26 47.3 -13 23 28   0.04563 1.0527   141.3    37.1    20.5
2024 07 08    16 45 26.6 -09 36 17   0.04436 1.0526   143.2    35.3    20.4
2024 07 09    17 04 37.2 -05 35 08   0.04359 1.0525   144.7    34.0    20.3
...
2024 07 15    18 55 13.1 +16 47 56   0.05005 1.0554   140.3    38.0    20.7
...
2024 07 23    20 30 45.2 +29 51 03   0.07746 1.0672   129.8    47.0    22.0
...
2024 08 07    21 39 58.1 +33 24 03   0.1442  1.1117   129.6    44.7    23.3
A. U. Tomatic                (C) Copyright 2024 MPC           M.P.E.C. 2024-N87
    
    
More information about the Iaude
mailing list